Temperature
30 31 31 31 32 31 31 31 31 31 31 31 30 30 30 29 28 28 27 26 26 25 24 23 22 22 21 21 20 20 20 19 19 19 19 18 18 18 18 18 18 18 18 18
30 31 31 32 31 31 31 31 31 31 31 30 30 30 31 29 28 28 28 27 26 26 25 23 22 22 22 21 21 21 20 20 20 19 19 19 18 18 18 18 18 18 18 18
30 31 31 31 31 31 31 31 31 31 31 31 30 30 30 30 29 28 27 27 27 26 25 24 23 22 22 21 21 21 21 20 20 19 19 19 19 18 18 18 18 18 18 18
31 31 31 30 31 31 31 31 31 31 30 31 30 30 31 30 30 29 28 27 27 26 25 24 23 23 22 22 22 21 21 21 20 20 19 19 19 19 18 18 18 18 18 18
30 30 30 30 31 31 31 31 31 31 30 31 31 30 31 31 30 30 29 28 27 27 26 25 24 23 23 22 21 21 21 21 21 20 20 19 19 19 19 18 18 18 18 18
31 31 31 31 31 31 31 30 30 31 31 30 30 30 31 32 31 31 30 28 27 27 26 25 24 23 23 22 22 21 21 21 21 20 20 19 19 19 19 18 18 18 18 18
30 30 31 31 30 30 30 30 30 29 30 30 30 30 31 32 31 31 30 29 27 26 26 25 24 23 23 22 22 21 21 21 21 20 20 20 19 19 19 19 18 18 18 18
29 29 30 31 30 30 30 31 29 29 29 30 30 30 31 32 31 30 29 28 27 27 26 25 24 23 23 22 22 21 21 21 20 20 20 20 20 19 19 19 18 18 18 18
30 29 31 30 31 31 30 30 31 30 30 30 30 31 31 31 31 30 29 29 28 27 26 25 24 23 23 22 22 21 21 21 20 20 20 20 20 19 19 19 19 18 18 18
30 29 30 30 30 30 31 31 30 30 28 28 30 30 31 31 31 31 30 29 28 27 26 25 24 24 23 22 22 21 21 21 20 20 20 20 20 20 20 19 19 18 18 18
30 29 30 30 29 30 29 30 30 30 30 29 29 30 32 31 31 30 30 29 28 27 26 25 24 24 23 22 22 21 21 20 20 20 20 19 19 19 19 19 19 19 18 18
29 30 29 30 30 30 30 30 30 29 28 29 29 30 31 31 31 30 29 28 27 26 26 25 24 23 23 22 22 21 21 21 20 20 20 19 19 19 19 19 19 18 18 18
28 29 28 29 29 29 29 30 30 30 30 29 29 30 31 30 30 29 28 27 26 25 25 24 23 23 22 22 22 21 21 21 21 20 20 19 19 19 19 18 18 18 18 18
27 29 29 28 29 29 29 29 29 29 29 29 29 30 30 29 29 28 27 26 26 25 24 24 23 22 22 21 22 21 21 21 20 20 20 19 19 19 18 18 18 18 18 18
27 28 28 29 29 29 29 29 29 29 29 29 30 30 29 29 28 27 26 26 25 25 24 23 23 22 22 21 21 21 21 20 20 20 20 19 19 19 18 18 18 18 18 18
27 27 27 27 28 28 28 29 29 28 29 29 29 29 29 28 27 26 25 25 25 24 23 23 22 22 21 21 21 21 20 20 20 20 19 19 19 18 18 18 18 18 18 18
26 26 26 27 28 27 27 28 28 28 28 28 28 28 27 27 26 25 25 24 24 23 23 22 22 21 21 21 21 21 20 20 20 20 19 19 19 18 18 18 18 18 18 18
24 25 26 26 26 25 28 28 28 27 27 27 27 26 26 25 24 23 23 23 22 22 22 21 21 21 21 21 21 20 20 20 20 19 19 19 19 18 18 18 18 18 18 17
25 24 25 26 26 26 27 26 26 26 26 26 25 25 24 24 24 24 22 21 21 21 21 21 21 21 21 20 20 20 20 20 19 19 19 19 19 19 18 18 18 18 18 17
24 23 24 25 24 25 26 26 25 25 25 24 24 23 23 24 25 24 21 20 20 20 20 20 20 20 20 20 20 20 20 19 19 19 19 19 19 18 18 18 18 18 18 17
23 23 23 24 24 25 25 24 24 24 24 22 22 22 22 22 22 21 20 19 19 19 19 19 19 19 19 19 19 19 19 19 19 19 19 19 18 18 18 18 18 18 17 17
23 23 23 23 23 24 23 23 23 23 21 21 21 21 20 20 19 19 19 19 18 18 18 18 18 18 18 19 19 19 19 19 19 18 18 18 18 18 18 18 18 17 17 17
22 23 23 23 23 21 21 21 21 21 20 20 20 20 19 19 19 18 18 18 18 18 18 18 18 18 18 18 18 18 18 18 18 18 18 18 18 18 17 17 17 17 17 16
22 21 21 21 22 21 20 20 19 19 19 19 19 19 18 18 18 18 17 17 17 17 17 17 17 17 17 18 18 18 18 18 18 18 17 17 17 17 17 17 17 16 16 16
20 20 20 20 20 20 19 19 18 18 18 18 18 18 18 18 17 17 16 16 16 17 17 17 17 17 17 17 17 17 17 18 17 17 17 17 17 17 17 17 17 16 16 16
20 19 19 20 19 19 18 18 17 17 17 17 17 17 17 17 17 16 16 16 16 16 16 16 16 16 17 17 17 17 17 17 17 17 16 17 17 16 16 16 16 16 16 16
Wind_Speed
7 8 8 5 4 5 5 5 4 3 1 3 5 4 4 8 10 11 11 12 13 13 12 12 12 11 11 10 10 10 9 8 7 6 5 5 4 4 4 3 3 3 3 3
9 10 7 5 5 6 6 6 4 2 1 3 5 5 4 8 10 11 12 12 13 13 13 13 13 12 12 12 11 11 10 10 9 6 5 4 4 4 3 3 3 3 3 3
12 5 3 6 7 7 7 6 5 5 4 5 6 5 6 7 9 10 11 12 13 13 14 15 14 14 13 13 13 11 11 10 9 8 6 5 5 4 4 4 4 3 3 3
10 7 6 8 9 9 7 4 5 6 7 4 5 6 3 6 8 10 11 12 13 14 14 14 15 15 15 14 13 12 11 11 10 9 8 8 6 5 5 4 4 4 4 4
8 7 8 10 8 7 6 4 6 7 8 8 6 7 3 5 6 8 10 11 11 12 13 14 15 15 14 13 12 12 12 11 10 10 9 8 7 6 5 5 5 5 5 4
9 6 7 7 5 5 4 5 7 8 8 9 5 7 5 3 3 4 6 9 9 10 11 12 13 13 13 13 13 12 12 11 11 10 10 9 7 6 6 6 5 5 5 5
11 10 8 7 8 8 8 9 7 7 7 6 2 6 5 1 2 3 3 6 8 9 10 12 13 13 14 14 13 13 13 12 12 12 10 10 9 8 7 7 6 5 5 5
11 10 10 9 10 8 9 11 9 8 7 5 5 6 3 1 2 3 3 4 7 9 10 11 12 12 13 14 14 13 14 13 13 12 11 10 10 8 7 7 6 5 4 4
7 7 6 7 7 9 9 10 10 11 11 10 6 5 5 4 4 4 4 4 6 8 9 10 10 11 12 13 13 14 14 13 13 12 11 10 10 9 7 7 7 6 4 4
7 8 7 6 8 8 8 8 7 9 8 9 8 8 4 3 3 4 4 5 5 7 8 9 9 9 10 11 11 12 13 13 13 12 11 10 10 10 8 8 7 6 5 5
10 10 8 9 10 10 9 9 8 9 9 9 9 5 0 2 3 3 3 4 4 6 7 8 8 8 9 10 11 11 11 12 12 12 11 10 10 10 9 8 7 7 6 6
8 9 10 10 7 6 10 11 11 10 9 10 11 7 0 1 2 2 2 1 2 3 5 7 8 8 8 10 10 10 11 11 12 12 11 11 10 9 9 9 8 7 7 7
5 8 10 10 10 9 10 11 12 12 11 11 13 8 1 1 3 3 2 2 2 3 4 5 7 8 8 8 9 9 10 11 11 11 11 11 11 10 10 8 8 7 7 7
5 10 11 12 7 5 9 11 12 13 13 13 13 11 6 5 5 4 3 2 3 4 5 6 6 7 7 7 8 9 9 9 9 10 11 10 10 10 9 8 8 8 8 8
6 11 12 12 9 10 11 12 13 15 16 16 13 11 8 5 5 4 3 2 3 4 5 6 6 6 7 7 8 8 7 7 8 9 9 9 9 9 9 8 8 8 8 9
5 9 11 13 12 12 13 14 15 15 15 16 15 12 6 3 2 3 3 2 2 3 5 6 7 7 7 7 8 8 8 8 8 9 9 8 8 9 9 9 9 9 8 8
6 7 10 14 11 12 16 13 13 13 12 12 13 9 4 4 3 3 3 3 3 2 3 5 6 6 6 7 8 8 8 8 8 8 7 8 8 8 9 9 9 9 9 9
8 9 9 11 10 16 8 2 6 8 8 8 8 6 4 3 3 2 3 4 4 3 2 3 4 5 6 6 7 8 8 8 8 7 7 8 8 8 8 8 9 9 8 8
10 9 9 11 15 15 8 4 5 8 8 5 5 4 3 3 4 3 2 4 4 4 3 2 3 4 5 6 7 8 8 8 8 8 8 8 8 8 8 8 8 8 7 7
8 10 10 11 14 15 6 1 2 7 9 1 2 2 3 3 6 2 4 5 5 4 2 1 1 3 4 5 6 8 9 8 8 8 7 7 8 8 8 8 8 7 7 7
8 9 13 15 16 11 3 1 3 8 4 2 1 1 2 3 4 4 4 4 5 4 3 1 1 2 3 4 5 7 8 8 7 7 7 7 7 7 7 6 7 7 7 7
9 9 10 11 14 9 3 1 4 3 2 1 2 2 2 3 3 3 3 4 4 4 3 2 0 1 1 3 5 5 6 5 6 6 6 6 7 7 6 7 7 7 7 8
7 7 6 6 5 3 1 2 3 3 3 3 3 3 3 3 3 4 4 4 4 3 2 2 1 1 1 1 2 3 3 4 5 6 6 6 6 6 6 7 7 7 7 7
5 4 6 7 6 4 3 3 3 4 4 4 4 4 4 4 4 4 4 4 4 3 3 2 1 1 1 1 2 2 2 3 4 5 5 5 6 6 6 6 6 7 7 7
7 5 7 9 8 6 5 4 4 4 4 5 5 5 5 5 5 4 4 4 4 4 3 3 3 2 2 2 2 2 2 3 4 4 4 5 6 6 6 6 5 7 7 6
8 9 9 8 6 6 6 5 5 5 6 6 6 6 6 5 5 5 5 5 5 5 4 4 4 4 3 3 3 3 3 3 4 4 5 5 5 5 6 6 6 4 4 4
Wind_Direction
208 225 227 233 258 296 298 301 311 338 356 259 257 264 221 200 205 204 201 200 201 200 193 191 193 190 187 186 186 188 189 180 183 184 186 181 179 178 168 167 151 167 161 152
214 226 237 245 248 255 265 278 289 304 327 269 273 266 232 212 213 212 210 207 207 201 195 194 196 196 192 189 189 189 192 189 191 188 188 186 176 177 172 169 157 182 179 180
226 223 209 229 231 245 255 277 300 302 273 237 269 246 209 204 210 214 218 218 214 207 202 198 200 201 197 193 193 193 193 190 193 187 183 176 168 177 175 179 179 187 193 193
229 229 226 236 240 253 256 277 286 279 265 260 257 276 210 203 209 215 218 216 216 209 207 203 201 202 200 196 193 192 190 190 188 187 191 187 188 188 185 191 186 185 191 190
217 219 230 237 247 258 271 276 271 268 265 265 246 267 242 182 216 216 214 214 214 207 206 205 203 201 200 193 189 188 187 187 186 189 191 196 200 194 187 187 181 190 183 189
237 224 234 242 244 242 235 239 242 244 251 254 251 263 259 208 232 223 209 210 211 205 202 202 200 195 195 191 188 186 182 185 184 187 190 196 197 197 192 190 185 191 185 189
220 219 219 226 226 212 229 246 249 238 234 248 217 256 261 268 245 248 230 210 205 200 197 194 193 192 193 192 190 185 182 185 186 187 191 193 195 196 198 199 195 202 194 191
221 220 210 216 234 241 238 251 257 267 269 264 218 249 260 243 246 244 230 205 195 195 195 193 193 193 194 195 194 190 186 188 188 189 192 195 195 198 200 201 203 200 205 194
232 225 196 212 232 243 236 242 261 271 270 272 258 251 249 220 228 218 206 193 189 191 192 191 191 192 192 194 195 194 191 190 192 191 191 196 196 200 200 196 204 206 201 192
241 243 215 203 212 223 249 249 243 249 261 264 253 249 256 233 241 213 207 196 187 188 190 190 189 192 191 191 191 193 194 194 193 193 194 194 197 197 199 203 204 207 202 193
243 242 221 208 222 221 211 225 241 251 255 265 270 263 331 273 281 252 226 201 193 193 189 186 187 189 190 190 189 189 192 195 196 198 197 198 198 197 197 201 203 204 205 196
230 246 242 228 217 246 239 239 237 245 246 254 271 270 96 293 302 299 283 239 206 197 192 184 181 184 188 188 186 187 190 194 197 197 198 199 200 198 198 199 201 201 201 202
219 240 239 223 207 208 228 234 240 251 255 254 260 263 188 250 288 292 277 253 210 196 194 182 178 181 185 186 186 189 196 196 196 194 197 199 198 199 201 200 199 199 201 204
256 247 250 257 266 242 232 232 234 243 250 254 257 271 274 284 293 296 288 255 220 200 196 190 183 184 185 186 186 190 197 196 195 194 195 196 198 199 200 198 199 200 203 204
248 251 251 262 270 263 257 252 243 242 253 263 271 276 280 287 295 300 293 261 223 208 200 196 193 187 188 185 183 185 189 189 192 193 196 194 195 197 198 200 203 203 206 206
252 260 257 254 253 257 258 254 250 248 253 259 266 271 294 288 282 282 281 265 240 219 208 201 198 194 193 188 183 182 186 184 187 194 196 190 191 195 197 201 205 205 205 206
248 248 255 257 251 254 252 250 248 246 251 259 262 275 290 275 263 268 284 283 285 269 226 211 204 203 201 193 185 183 186 184 184 190 193 192 194 198 202 203 202 203 202 200
244 251 250 258 250 249 258 279 255 247 257 269 275 289 283 278 278 297 314 313 313 306 270 225 212 202 199 192 184 183 180 182 185 187 192 198 198 200 204 204 203 204 201 201
235 237 250 251 250 252 242 241 251 251 252 281 280 285 289 277 254 244 2 348 332 322 302 253 221 203 193 188 181 176 175 177 183 188 192 196 198 199 201 204 203 203 201 203
215 224 243 246 253 258 261 265 267 258 245 273 292 289 300 275 250 258 12 353 354 349 339 299 195 192 188 184 180 178 178 178 184 190 192 196 199 200 202 205 205 202 202 205
216 223 235 246 251 256 304 305 224 239 264 56 321 306 291 279 303 321 331 343 349 348 353 5 178 189 178 179 179 183 183 187 190 190 189 191 198 203 203 203 202 200 203 205
249 244 237 245 250 252 26 201 249 298 10 352 331 317 319 322 328 328 322 326 329 337 354 7 46 158 158 169 178 185 189 188 189 190 192 194 197 205 199 199 201 203 203 202
249 269 275 261 270 4 358 288 306 302 299 312 319 321 316 308 312 322 324 320 318 317 330 340 21 115 143 169 177 188 188 186 188 189 194 197 197 201 201 200 201 203 205 211
245 265 266 265 263 281 280 289 303 305 300 302 306 303 300 298 305 312 319 320 318 318 315 308 271 212 204 204 196 207 191 190 193 194 196 199 200 202 198 206 210 213 213 216
277 263 259 259 268 276 265 281 293 302 307 306 304 298 295 292 292 297 303 311 313 310 307 291 264 247 236 234 233 226 198 194 201 204 206 210 210 208 207 210 215 219 220 223
255 255 258 268 279 276 278 286 300 300 296 295 293 293 293 287 286 288 291 295 296 297 297 282 268 260 250 236 232 228 215 211 211 215 220 223 223 216 216 213 214 205 227 194
Height
1509 1506 1505 1503 1502 1503 1503 1504 1505 1502 1500 1503 1503 1502 1503 1507 1510 1512 1515 1518 1521 1524 1527 1530 1532 1534 1535 1537 1539 1541 1542 1543 1545 1547 1548 1549 1550 1551 1552 1553 1553 1554 1554 1555
1506 1505 1501 1501 1502 1503 1503 1505 1503 1501 1500 1503 1502 1501 1499 1504 1507 1509 1511 1514 1517 1521 1524 1527 1529 1531 1533 1535 1537 1539 1540 1542 1544 1545 1547 1548 1549 1551 1552 1553 1553 1554 1554 1555
1503 1500 1501 1502 1503 1504 1503 1503 1503 1503 1501 1500 1501 1500 1498 1499 1503 1506 1509 1511 1513 1516 1519 1523 1526 1528 1531 1532 1534 1537 1538 1540 1542 1544 1545 1547 1548 1550 1551 1552 1553 1553 1554 1554
1499 1499 1501 1502 1502 1501 1504 1498 1500 1502 1504 1501 1502 1507 1496 1494 1498 1501 1503 1506 1508 1511 1515 1518 1521 1524 1527 1529 1532 1534 1536 1538 1540 1542 1544 1546 1547 1549 1550 1551 1552 1552 1553 1553
1498 1499 1500 1502 1500 1499 1499 1498 1499 1500 1501 1502 1499 1504 1494 1490 1494 1494 1497 1501 1504 1507 1511 1514 1517 1520 1524 1527 1529 1531 1533 1535 1538 1540 1542 1544 1546 1547 1549 1549 1550 1551 1552 1552
1495 1496 1497 1497 1497 1499 1498 1499 1499 1497 1498 1510 1500 1504 1499 1486 1489 1489 1493 1497 1501 1504 1507 1511 1514 1517 1521 1524 1526 1528 1530 1532 1535 1537 1540 1542 1544 1545 1547 1548 1549 1550 1551 1551
1498 1495 1495 1496 1498 1498 1498 1502 1510 1512 1510 1506 1495 1500 1494 1483 1485 1488 1491 1495 1498 1501 1504 1507 1511 1514 1517 1520 1523 1525 1526 1529 1532 1535 1537 1539 1541 1543 1544 1546 1547 1548 1549 1550
1499 1499 1492 1493 1494 1496 1495 1496 1511 1520 1514 1501 1496 1498 1486 1481 1485 1488 1491 1493 1496 1498 1501 1504 1507 1511 1513 1516 1519 1522 1524 1526 1529 1531 1534 1537 1538 1541 1542 1544 1546 1547 1548 1548
1493 1496 1488 1490 1491 1492 1495 1494 1489 1498 1501 1504 1495 1488 1482 1480 1483 1486 1488 1491 1493 1496 1499 1502 1505 1508 1510 1513 1516 1519 1521 1523 1526 1528 1531 1533 1535 1537 1540 1541 1543 1544 1545 1546
1487 1495 1488 1489 1491 1491 1489 1488 1492 1499 1513 1514 1500 1493 1486 1481 1481 1482 1486 1488 1492 1494 1497 1500 1503 1505 1508 1511 1513 1516 1518 1520 1523 1525 1528 1530 1532 1534 1536 1538 1540 1541 1542 1543
1486 1491 1489 1489 1491 1489 1492 1492 1492 1492 1495 1508 1509 1495 1474 1478 1479 1481 1484 1487 1490 1492 1495 1498 1500 1503 1506 1508 1511 1513 1515 1518 1520 1522 1525 1527 1529 1531 1533 1535 1536 1538 1539 1540
1487 1486 1489 1485 1482 1484 1484 1485 1488 1498 1500 1497 1499 1491 1472 1476 1479 1482 1484 1487 1489 1491 1494 1496 1498 1501 1503 1506 1508 1510 1512 1515 1517 1519 1521 1523 1526 1528 1530 1532 1533 1535 1536 1538
1487 1488 1496 1492 1489 1486 1485 1483 1482 1483 1487 1492 1496 1489 1473 1477 1480 1482 1485 1487 1489 1491 1493 1495 1497 1499 1501 1503 1505 1507 1509 1512 1514 1516 1518 1521 1523 1525 1527 1529 1530 1532 1533 1535
1490 1484 1488 1492 1484 1479 1483 1483 1482 1485 1486 1488 1486 1481 1475 1477 1479 1482 1484 1486 1488 1489 1491 1493 1495 1497 1499 1500 1502 1504 1506 1509 1511 1513 1515 1517 1519 1521 1523 1525 1527 1528 1530 1531
1488 1485 1482 1479 1478 1478 1480 1480 1480 1483 1480 1482 1477 1476 1475 1477 1480 1483 1484 1486 1487 1488 1490 1491 1493 1494 1496 1498 1499 1501 1504 1506 1508 1510 1512 1513 1516 1518 1520 1521 1523 1525 1526 1528
1487 1486 1484 1484 1479 1479 1480 1477 1477 1477 1477 1476 1475 1476 1475 1478 1482 1484 1484 1485 1486 1487 1488 1489 1491 1492 1494 1495 1496 1499 1501 1503 1505 1507 1509 1510 1512 1514 1516 1518 1520 1521 1523 1524
1487 1487 1489 1484 1477 1481 1483 1474 1474 1474 1474 1475 1476 1476 1477 1479 1481 1484 1484 1485 1486 1486 1487 1488 1489 1490 1491 1492 1494 1496 1498 1500 1502 1504 1506 1507 1509 1511 1513 1515 1517 1518 1519 1521
1489 1489 1485 1482 1485 1496 1473 1469 1470 1473 1474 1474 1475 1477 1478 1481 1483 1484 1485 1485 1485 1486 1486 1486 1487 1488 1489 1490 1492 1493 1495 1497 1499 1501 1503 1505 1506 1508 1510 1512 1513 1514 1516 1517
1485 1488 1485 1483 1483 1478 1472 1471 1473 1475 1475 1476 1477 1478 1480 1480 1480 1481 1484 1485 1485 1485 1485 1485 1485 1486 1487 1488 1490 1491 1493 1494 1496 1498 1500 1501 1503 1505 1507 1508 1510 1511 1512 1514
1484 1486 1486 1482 1487 1484 1471 1471 1474 1476 1477 1478 1479 1480 1480 1479 1477 1479 1483 1484 1483 1483 1483 1483 1483 1484 1485 1486 1487 1489 1491 1492 1493 1495 1497 1499 1500 1502 1503 1505 1506 1508 1509 1510
1484 1485 1484 1480 1480 1471 1472 1473 1475 1481 1478 1480 1480 1481 1481 1481 1482 1483 1483 1483 1482 1482 1482 1481 1481 1482 1483 1483 1485 1487 1488 1489 1491 1493 1494 1495 1497 1499 1500 1502 1503 1504 1505 1507
1480 1478 1480 1478 1480 1477 1474 1474 1476 1477 1479 1480 1481 1482 1482 1483 1483 1483 1482 1482 1481 1481 1480 1480 1480 1480 1481 1482 1483 1485 1486 1487 1488 1490 1491 1492 1493 1496 1497 1498 1499 1501 1502 1503
1479 1477 1473 1474 1475 1478 1478 1479 1480 1480 1480 1481 1481 1482 1482 1482 1482 1481 1481 1481 1480 1479 1479 1479 1479 1479 1480 1480 1481 1483 1483 1484 1486 1487 1488 1489 1490 1492 1493 1495 1496 1497 1498 1500
1478 1481 1480 1478 1475 1477 1478 1479 1480 1480 1480 1480 1481 1481 1481 1480 1480 1480 1479 1479 1478 1478 1478 1477 1478 1478 1478 1479 1479 1481 1481 1482 1483 1484 1485 1486 1487 1488 1489 1491 1492 1493 1494 1495
1481 1481 1479 1478 1478 1478 1478 1479 1479 1479 1479 1479 1479 1479 1479 1478 1478 1478 1477 1477 1477 1476 1476 1476 1476 1476 1476 1476 1477 1478 1479 1480 1480 1481 1482 1483 1484 1485 1486 1487 1488 1489 1490 1491
1480 1480 1478 1475 1476 1477 1477 1477 1477 1477 1477 1477 1477 1476 1477 1476 1476 1475 1474 1474 1474 1473 1473 1473 1473 1473 1473 1474 1474 1475 1475 1476 1477 1478 1478 1480 1481 1481 1482 1483 1484 1484 1486 1486